User: anonymous   Login
Location: Caltech
(34.1382°N, 118.1253°W)
Time: 22:03:20
(UTC-07:00)
Language:

Oscar 16 - Orbit

View from above orbital plane
View from above orbital plane
View from above satellite
View from above satellite

Ground track
Ground track

The orbit data is extracted from the following two-line orbital elements,

1 20439U 90005D   18114.45289556  .00000020  00000-0  23700-4 0  9999
2 20439  98.6442  57.2679 0010270 330.6051 140.1061 14.32718711475977
Epoch (UTC): 24 April 2018 10:52:10
Eccentricity: 0.0010270
inclination: 98.6442°
perigee height: 775 km
apogee height: 790 km
right ascension of ascending node: 57.2679°
argument of perigee: 330.6051°
revolutions per day: 14.32718711
mean anomaly at epoch: 140.1061°
orbit number at epoch: 47597

The dashed part of the orbit path shows where the satellite is in the earth's shadow,  

DLR